| time (UTC) | temp C | wind direction | speed KPH | gust KPH | rain 1hr cm | rain 24hr cm | rain mn cm | humidity % | barometer mb |
| 20260906121253 | 23 | 327 | 0.0 | 0.0 | 0.00 | 0.00 | 0.00 | 90 | 1013.5 |
| 20260906120749 | 22 | 326 | 0.0 | 0.0 | 0.00 | 0.00 | 0.00 | 91 | 1013.5 |
| 20260906120245 | 22 | 326 | 0.0 | 0.0 | 0.00 | 0.00 | 0.00 | 92 | 1013.3 |
| 20260906115741 | 22 | 190 | 0.0 | 0.0 | 0.00 | 0.00 | 0.00 | 93 | 1012.9 |
| 20260906115236 | 22 | 189 | 0.0 | 0.0 | 0.00 | 0.00 | 0.00 | 93 | 1013.0 |
| 20260906114735 | 22 | 190 | 0.0 | 0.0 | 0.00 | 0.00 | 0.00 | 93 | 1013.0 |
| 20260906114230 | 22 | 291 | 0.0 | 0.0 | 0.00 | 0.00 | 0.00 | 93 | 1012.9 |
| 20260906113725 | 22 | 291 | 0.0 | 0.0 | 0.00 | 0.00 | 0.00 | 93 | 1012.9 |
| 20260906113225 | 22 | 276 | 0.0 | 0.0 | 0.00 | 0.00 | 0.00 | 93 | 1012.8 |
| 20260906112724 | 22 | 276 | 0.0 | 0.0 | 0.00 | 0.00 | 0.00 | 93 | 1012.5 |
| 20260906112221 | 22 | 276 | 0.0 | 0.0 | 0.00 | 0.00 | 0.00 | 93 | 1012.7 |
| 20260906111721 | 22 | 276 | 0.0 | 0.0 | 0.00 | 0.00 | 0.00 | 93 | 1012.4 |
| 20260906111215 | 22 | 300 | 0.0 | 0.0 | 0.00 | 0.00 | 0.00 | 93 | 1012.5 |
| 20260906110710 | 22 | 256 | 1.6 | 1.6 | 0.00 | 0.00 | 0.00 | 93 | 1012.4 |
| 20260906110207 | 22 | 1 | 3.2 | 3.2 | 0.00 | 0.00 | 0.00 | 92 | 1012.4 |
| 20260906105705 | 22 | 198 | 0.0 | 0.0 | 0.00 | 0.00 | 0.00 | 92 | 1012.1 |
| 20260906105202 | 22 | 198 | 0.0 | 0.0 | 0.00 | 0.00 | 0.00 | 92 | 1012.1 |
| 20260906104701 | 22 | 198 | 0.0 | 0.0 | 0.00 | 0.00 | 0.00 | 91 | 1012.2 |
| 20260906104200 | 22 | 198 | 0.0 | 0.0 | 0.00 | 0.00 | 0.00 | 90 | 1012.2 |
| 20260906103658 | 22 | 197 | 0.0 | 0.0 | 0.00 | 0.00 | 0.00 | 90 | 1012.0 |
| 20260906103153 | 22 | 198 | 0.0 | 0.0 | 0.00 | 0.00 | 0.00 | 89 | 1012.1 |
| 20260906102649 | 22 | 197 | 0.0 | 0.0 | 0.00 | 0.00 | 0.00 | 89 | 1012.0 |
| 20260906102148 | 23 | 197 | 0.0 | 0.0 | 0.00 | 0.00 | 0.00 | 88 | 1011.8 |
| 20260906101648 | 23 | 197 | 0.0 | 0.0 | 0.00 | 0.00 | 0.00 | 87 | 1011.9 |
| 20260906101142 | 23 | 197 | 0.0 | 0.0 | 0.00 | 0.00 | 0.00 | 88 | 1012.0 |
| 20260906100638 | 23 | 197 | 0.0 | 0.0 | 0.00 | 0.00 | 0.00 | 88 | 1011.8 |
| 20260906100134 | 23 | 197 | 0.0 | 0.0 | 0.00 | 0.00 | 0.00 | 88 | 1011.9 |
| 20260906095634 | 23 | 197 | 0.0 | 1.6 | 0.00 | 0.00 | 0.00 | 87 | 1011.7 |
| 20260906095129 | 23 | 206 | 0.0 | 0.0 | 0.00 | 0.00 | 0.00 | 87 | 1011.7 |
| 20260906094628 | 23 | 204 | 1.6 | 1.6 | 0.00 | 0.00 | 0.00 | 87 | 1011.8 |
| 20260906094124 | 23 | 202 | 0.0 | 0.0 | 0.00 | 0.00 | 0.00 | 85 | 1011.7 |
| 20260906093620 | 23 | 202 | 0.0 | 0.0 | 0.00 | 0.00 | 0.00 | 85 | 1011.8 |
| 20260906093120 | 23 | 194 | 0.0 | 0.0 | 0.00 | 0.00 | 0.00 | 85 | 1011.8 |
| 20260906092615 | 23 | 202 | 1.6 | 1.6 | 0.00 | 0.00 | 0.00 | 85 | 1011.7 |
| 20260906092110 | 24 | 210 | 0.0 | 1.6 | 0.00 | 0.00 | 0.00 | 84 | 1011.5 |
| 20260906091606 | 24 | 201 | 1.6 | 1.6 | 0.00 | 0.00 | 0.00 | 83 | 1011.5 |
| 20260906091103 | 24 | 206 | 1.6 | 3.2 | 0.00 | 0.00 | 0.00 | 83 | 1011.5 |
| 20260906090602 | 24 | 201 | 3.2 | 3.2 | 0.00 | 0.00 | 0.00 | 83 | 1011.7 |
| 20260906085601 | 23 | 205 | 1.6 | 3.2 | 0.00 | 0.00 | 0.00 | 84 | 1011.5 |
| 20260906085056 | 23 | 212 | 1.6 | 1.6 | 0.00 | 0.00 | 0.00 | 85 | 1011.6 |
| 20260906084551 | 23 | 206 | 0.0 | 0.0 | 0.00 | 0.00 | 0.00 | 85 | 1011.6 |
| 20260906084049 | 23 | 206 | 0.0 | 0.0 | 0.00 | 0.00 | 0.00 | 83 | 1011.4 |
| 20260906083545 | 23 | 203 | 0.0 | 0.0 | 0.00 | 0.00 | 0.00 | 83 | 1011.4 |
| 20260906083045 | 23 | 203 | 0.0 | 0.0 | 0.00 | 0.00 | 0.00 | 83 | 1011.6 |
| 20260906082540 | 23 | 203 | 0.0 | 0.0 | 0.00 | 0.00 | 0.00 | 83 | 1011.6 |
| 20260906082036 | 23 | 203 | 0.0 | 0.0 | 0.00 | 0.00 | 0.00 | 83 | 1011.6 |
| 20260906081532 | 23 | 203 | 0.0 | 0.0 | 0.00 | 0.00 | 0.00 | 83 | 1011.5 |
| 20260906081027 | 24 | 203 | 0.0 | 0.0 | 0.00 | 0.00 | 0.00 | 82 | 1011.5 |
| 20260906080524 | 24 | 199 | 0.0 | 0.0 | 0.00 | 0.00 | 0.00 | 81 | 1011.4 |
| 20260906080020 | 23 | 207 | 1.6 | 3.2 | 0.00 | 0.00 | 0.00 | 81 | 1011.5 |
| 20260906075519 | 23 | 215 | 0.0 | 0.0 | 0.00 | 0.00 | 0.00 | 81 | 1011.6 |
| 20260906075014 | 24 | 215 | 0.0 | 0.0 | 0.00 | 0.00 | 0.00 | 80 | 1011.5 |
| 20260906074509 | 24 | 215 | 0.0 | 0.0 | 0.00 | 0.00 | 0.00 | 80 | 1011.5 |
| 20260906074007 | 24 | 215 | 0.0 | 0.0 | 0.00 | 0.00 | 0.00 | 80 | 1011.8 |
| 20260906073502 | 24 | 215 | 0.0 | 0.0 | 0.00 | 0.00 | 0.00 | 79 | 1011.7 |
| 20260906072958 | 24 | 219 | 0.0 | 1.6 | 0.00 | 0.00 | 0.00 | 79 | 1011.7 |
| 20260906072453 | 24 | 198 | 1.6 | 1.6 | 0.00 | 0.00 | 0.00 | 80 | 1011.9 |
| 20260906071949 | 24 | 212 | 4.8 | 4.8 | 0.00 | 0.00 | 0.00 | 79 | 1011.8 |
| 20260906071445 | 24 | 208 | 0.0 | 1.6 | 0.00 | 0.00 | 0.00 | 79 | 1011.6 |
| 20260906070941 | 24 | 195 | 3.2 | 3.2 | 0.00 | 0.00 | 0.00 | 78 | 1011.8 |
| 20260906070436 | 24 | 206 | 1.6 | 1.6 | 0.00 | 0.00 | 0.00 | 78 | 1011.7 |
| 20260906065932 | 24 | 337 | 1.6 | 1.6 | 0.00 | 0.00 | 0.00 | 78 | 1011.7 |
| 20260906065426 | 25 | 166 | 1.6 | 1.6 | 0.00 | 0.00 | 0.00 | 77 | 1012.0 |
| 20260906064922 | 25 | 184 | 0.0 | 0.0 | 0.00 | 0.00 | 0.00 | 76 | 1011.8 |
| 20260906064418 | 25 | 130 | 0.0 | 0.0 | 0.00 | 0.00 | 0.00 | 76 | 1011.8 |
| 20260906063912 | 25 | 52 | 1.6 | 1.6 | 0.00 | 0.00 | 0.00 | 75 | 1011.7 |
| 20260906063407 | 25 | 203 | 0.0 | 1.6 | 0.00 | 0.00 | 0.00 | 74 | 1011.7 |
| 20260906062902 | 25 | 140 | 1.6 | 1.6 | 0.00 | 0.00 | 0.00 | 74 | 1012.0 |
| 20260906062401 | 25 | 129 | 1.6 | 1.6 | 0.00 | 0.00 | 0.00 | 74 | 1011.7 |
| 20260906061857 | 25 | 198 | 4.8 | 4.8 | 0.00 | 0.00 | 0.00 | 73 | 1011.8 |
| 20260906061354 | 25 | 158 | 0.0 | 0.0 | 0.00 | 0.00 | 0.00 | 73 | 1011.9 |
| 20260906060848 | 25 | 151 | 4.8 | 4.8 | 0.00 | 0.00 | 0.00 | 73 | 1012.1 |
| 20260906060346 | 25 | 152 | 1.6 | 1.6 | 0.00 | 0.00 | 0.00 | 74 | 1012.1 |
| 20260906055841 | 25 | 135 | 1.6 | 1.6 | 0.00 | 0.00 | 0.00 | 74 | 1012.0 |
| 20260906055337 | 25 | 139 | 0.0 | 0.0 | 0.00 | 0.00 | 0.00 | 75 | 1012.1 |
| 20260906054832 | 25 | 125 | 0.0 | 0.0 | 0.00 | 0.00 | 0.00 | 75 | 1012.0 |
| 20260906054327 | 25 | 126 | 0.0 | 0.0 | 0.00 | 0.00 | 0.00 | 76 | 1012.1 |
| 20260906053823 | 25 | 125 | 0.0 | 0.0 | 0.00 | 0.00 | 0.00 | 75 | 1012.2 |
| 20260906053319 | 25 | 125 | 0.0 | 1.6 | 0.00 | 0.00 | 0.00 | 73 | 1012.1 |
| 20260906052814 | 25 | 47 | 0.0 | 0.0 | 0.00 | 0.00 | 0.00 | 75 | 1012.1 |
| 20260906052310 | 25 | 46 | 0.0 | 0.0 | 0.00 | 0.00 | 0.00 | 73 | 1012.1 |
| 20260906051807 | 25 | 68 | 1.6 | 1.6 | 0.00 | 0.00 | 0.00 | 72 | 1012.3 |
| 20260906051306 | 26 | 177 | 0.0 | 0.0 | 0.00 | 0.00 | 0.00 | 71 | 1012.3 |
| 20260906050802 | 26 | 57 | 0.0 | 0.0 | 0.00 | 0.00 | 0.00 | 70 | 1012.3 |
| 20260906050257 | 26 | 117 | 1.6 | 3.2 | 0.00 | 0.00 | 0.00 | 70 | 1012.4 |
| 20260906045755 | 26 | 200 | 0.0 | 0.0 | 0.00 | 0.00 | 0.00 | 71 | 1012.4 |
| 20260906045250 | 26 | 149 | 1.6 | 3.2 | 0.00 | 0.00 | 0.00 | 71 | 1012.3 |
| 20260906044747 | 26 | 134 | 0.0 | 0.0 | 0.00 | 0.00 | 0.00 | 73 | 1012.4 |
| 20260906044241 | 26 | 26 | 1.6 | 3.2 | 0.00 | 0.00 | 0.00 | 73 | 1012.6 |
| 20260906043737 | 26 | 44 | 1.6 | 1.6 | 0.00 | 0.00 | 0.00 | 74 | 1012.4 |
| 20260906043233 | 26 | 103 | 1.6 | 1.6 | 0.00 | 0.00 | 0.00 | 74 | 1012.4 |
| 20260906042732 | 26 | 29 | 3.2 | 3.2 | 0.00 | 0.00 | 0.00 | 74 | 1012.4 |
| 20260906042231 | 26 | 139 | 3.2 | 4.8 | 0.00 | 0.00 | 0.00 | 74 | 1012.4 |
| 20260906041727 | 26 | 116 | 1.6 | 1.6 | 0.00 | 0.00 | 0.00 | 75 | 1012.1 |
| 20260906041222 | 26 | 63 | 0.0 | 1.6 | 0.00 | 0.00 | 0.00 | 73 | 1012.4 |
| 20260906040718 | 27 | 40 | 3.2 | 4.8 | 0.00 | 0.00 | 0.00 | 73 | 1012.4 |
| 20260906040214 | 27 | 61 | 4.8 | 11.3 | 0.00 | 0.00 | 0.00 | 73 | 1012.7 |
| 20260906035709 | 27 | 134 | 0.0 | 1.6 | 0.00 | 0.00 | 0.00 | 72 | 1012.6 |
| 20260906035204 | 27 | 145 | 1.6 | 1.6 | 0.00 | 0.00 | 0.00 | 73 | 1012.5 |
| 20260906034659 | 27 | 33 | 8.0 | 9.7 | 0.00 | 0.00 | 0.00 | 73 | 1012.9 |
| 20260906034153 | 27 | 22 | 4.8 | 4.8 | 0.00 | 0.00 | 0.00 | 73 | 1012.7 |
| 20260906033649 | 27 | 30 | 4.8 | 6.4 | 0.00 | 0.00 | 0.00 | 72 | 1012.9 |
| 20260906033149 | 27 | 58 | 3.2 | 4.8 | 0.00 | 0.00 | 0.00 | 73 | 1012.6 |
| 20260906032646 | 27 | 32 | 3.2 | 4.8 | 0.00 | 0.00 | 0.00 | 76 | 1012.5 |
| 20260906032146 | 27 | 42 | 1.6 | 1.6 | 0.00 | 0.00 | 0.00 | 77 | 1012.0 |
| 20260906031641 | 26 | 45 | 3.2 | 3.2 | 0.00 | 0.00 | 0.00 | 77 | 1012.2 |
| 20260906031137 | 26 | 69 | 3.2 | 3.2 | 0.00 | 0.00 | 0.00 | 78 | 1012.0 |
| 20260906030636 | 27 | 42 | 0.0 | 0.0 | 0.00 | 0.00 | 0.00 | 75 | 1011.7 |
| 20260906030131 | 27 | 42 | 0.0 | 0.0 | 0.00 | 0.00 | 0.00 | 73 | 1011.9 |
| 20260906025630 | 28 | 236 | 0.0 | 0.0 | 0.00 | 0.00 | 0.00 | 71 | 1011.9 |
| 20260906025130 | 28 | 236 | 0.0 | 0.0 | 0.00 | 0.00 | 0.00 | 69 | 1011.6 |
| 20260906024624 | 28 | 236 | 0.0 | 0.0 | 0.00 | 0.00 | 0.00 | 68 | 1011.6 |
| 20260906024119 | 28 | 236 | 0.0 | 0.0 | 0.00 | 0.00 | 0.00 | 69 | 1011.2 |
| 20260906023615 | 27 | 190 | 0.0 | 0.0 | 0.00 | 0.00 | 0.00 | 73 | 1011.6 |
| 20260906023109 | 27 | 45 | 0.0 | 0.0 | 0.00 | 0.00 | 0.00 | 73 | 1011.5 |
| 20260906022604 | 27 | 35 | 0.0 | 0.0 | 0.00 | 0.00 | 0.00 | 72 | 1011.3 |
| 20260906022100 | 27 | 36 | 1.6 | 1.6 | 0.00 | 0.00 | 0.00 | 71 | 1011.3 |
| 20260906021556 | 27 | 196 | 0.0 | 0.0 | 0.00 | 0.00 | 0.00 | 72 | 1011.1 |
| 20260906021054 | 27 | 65 | 0.0 | 0.0 | 0.00 | 0.00 | 0.00 | 73 | 1011.1 |
| 20260906020554 | 27 | 203 | 0.0 | 0.0 | 0.00 | 0.00 | 0.00 | 71 | 1011.1 |
| 20260906020054 | 26 | 212 | 1.6 | 1.6 | 0.00 | 0.00 | 0.00 | 75 | 1011.0 |
| 20260906015554 | 27 | 46 | 3.2 | 3.2 | 0.00 | 0.00 | 0.00 | 78 | 1011.2 |
| 20260906015054 | -17 | 0.0 | 0.0 | 0.00 | 0.00 | 0.00 | 1010.9 | ||
| 20260906014554 | -17 | 0.0 | 0.0 | 0.00 | 0.00 | 0.00 | 1010.7 | ||
| 20260906014050 | -17 | 0.0 | 0.0 | 0.00 | 0.00 | 0.00 | 1010.7 | ||
| 20260906013545 | -17 | 0.0 | 0.0 | 0.00 | 0.00 | 0.00 | 1010.8 | ||
| 20260906013040 | -17 | 0.0 | 0.0 | 0.00 | 0.00 | 0.00 | 1010.7 | ||
| 20260906012535 | -17 | 0.0 | 0.0 | 0.00 | 0.00 | 0.00 | 1010.6 | ||
| 20260906012035 | 30 | 232 | 0.0 | 0.0 | 0.00 | 0.00 | 0.00 | 65 | 1010.6 |
| 20260906011531 | 30 | 232 | 0.0 | 0.0 | 0.00 | 0.00 | 0.00 | 65 | 1010.5 |
| 20260906011031 | 30 | 232 | 0.0 | 0.0 | 0.00 | 0.00 | 0.00 | 64 | 1010.6 |
| 20260906010526 | 30 | 232 | 0.0 | 1.6 | 0.00 | 0.00 | 0.00 | 62 | 1010.7 |
| 20260906010022 | 30 | 209 | 0.0 | 0.0 | 0.00 | 0.00 | 0.00 | 63 | 1010.7 |
| 20260906005521 | 30 | 209 | 1.6 | 3.2 | 0.00 | 0.00 | 0.00 | 62 | 1010.7 |
| 20260906005021 | 30 | 222 | 1.6 | 1.6 | 0.00 | 0.00 | 0.00 | 61 | 1010.5 |
| 20260906004520 | 30 | 223 | 0.0 | 0.0 | 0.00 | 0.00 | 0.00 | 62 | 1010.6 |
| 20260906004015 | 30 | 223 | 0.0 | 0.0 | 0.00 | 0.00 | 0.00 | 63 | 1010.7 |
| 20260906003511 | 30 | 223 | 0.0 | 0.0 | 0.00 | 0.00 | 0.00 | 62 | 1010.7 |
| 20260906003007 | 30 | 223 | 0.0 | 0.0 | 0.00 | 0.00 | 0.00 | 61 | 1010.8 |
| 20260906002507 | 30 | 223 | 0.0 | 0.0 | 0.00 | 0.00 | 0.00 | 63 | 1010.8 |
| 20260906002001 | 31 | 223 | 0.0 | 0.0 | 0.00 | 0.00 | 0.00 | 60 | 1010.8 |
| 20260906001458 | 31 | 223 | 0.0 | 0.0 | 0.00 | 0.00 | 0.00 | 60 | 1010.9 |
| 20260906000952 | 31 | 223 | 0.0 | 0.0 | 0.00 | 0.00 | 0.00 | 57 | 1010.9 |
| 20260906000448 | 31 | 223 | 0.0 | 0.0 | 0.00 | 0.00 | 0.00 | 60 | 1010.9 |
| 20260905235942 | 32 | 223 | 0.0 | 0.0 | 0.00 | 0.00 | 0.00 | 57 | 1010.9 |
| 20260905235441 | 32 | 223 | 0.0 | 0.0 | 0.00 | 0.00 | 0.00 | 57 | 1010.8 |
| 20260905234937 | 32 | 223 | 0.0 | 0.0 | 0.00 | 0.00 | 0.00 | 55 | 1010.7 |
| 20260905234432 | 33 | 223 | 0.0 | 0.0 | 0.00 | 0.00 | 0.00 | 53 | 1010.9 |
| 20260905233926 | 33 | 223 | 0.0 | 0.0 | 0.00 | 0.00 | 0.00 | 54 | 1010.9 |
| 20260905233422 | 33 | 223 | 0.0 | 0.0 | 0.00 | 0.00 | 0.00 | 52 | 1010.7 |
| 20260905232921 | 34 | 223 | 0.0 | 0.0 | 0.00 | 0.00 | 0.00 | 51 | 1010.6 |
| 20260905232417 | 35 | 223 | 0.0 | 0.0 | 0.00 | 0.00 | 0.00 | 50 | 1010.7 |
| 20260905231912 | 35 | 222 | 0.0 | 0.0 | 0.00 | 0.00 | 0.00 | 47 | 1010.8 |
| 20260905231408 | 35 | 217 | 0.0 | 0.0 | 0.00 | 0.00 | 0.00 | 47 | 1010.8 |
| 20260905230904 | 35 | 219 | 0.0 | 0.0 | 0.00 | 0.00 | 0.00 | 47 | 1010.7 |
| 20260905230402 | 36 | 233 | 0.0 | 0.0 | 0.00 | 0.00 | 0.00 | 46 | 1010.8 |
| 20260905225901 | 36 | 188 | 0.0 | 0.0 | 0.00 | 0.00 | 0.00 | 46 | 1010.7 |
| 20260905225356 | 36 | 192 | 0.0 | 0.0 | 0.00 | 0.00 | 0.00 | 48 | 1010.7 |
| 20260905224851 | 36 | 321 | 0.0 | 0.0 | 0.00 | 0.00 | 0.00 | 46 | 1010.7 |
| 20260905224348 | 36 | 219 | 1.6 | 1.6 | 0.00 | 0.00 | 0.00 | 44 | 1010.4 |
| 20260905223842 | 36 | 252 | 0.0 | 0.0 | 0.00 | 0.00 | 0.00 | 43 | 1010.5 |
| 20260905223340 | 37 | 279 | 3.2 | 3.2 | 0.00 | 0.00 | 0.00 | 41 | 1010.7 |
| 20260905222840 | 37 | 310 | 3.2 | 3.2 | 0.00 | 0.00 | 0.00 | 40 | 1010.6 |
| 20260905222338 | 37 | 234 | 3.2 | 3.2 | 0.00 | 0.00 | 0.00 | 41 | 1010.5 |
| 20260905221835 | 37 | 216 | 0.0 | 0.0 | 0.00 | 0.00 | 0.00 | 44 | 1010.5 |
| 20260905221331 | 37 | 65 | 0.0 | 0.0 | 0.00 | 0.00 | 0.00 | 42 | 1010.7 |
| 20260905220827 | 37 | 265 | 3.2 | 4.8 | 0.00 | 0.00 | 0.00 | 41 | 1010.5 |
| 20260905220323 | 37 | 202 | 1.6 | 3.2 | 0.00 | 0.00 | 0.00 | 41 | 1010.6 |
| 20260905215822 | 37 | 197 | 0.0 | 0.0 | 0.00 | 0.00 | 0.00 | 43 | 1010.6 |
| 20260905215318 | 37 | 160 | 0.0 | 0.0 | 0.00 | 0.00 | 0.00 | 41 | 1010.6 |
| 20260905214814 | 37 | 223 | 0.0 | 0.0 | 0.00 | 0.00 | 0.00 | 41 | 1010.5 |
| 20260905214309 | 37 | 200 | 3.2 | 3.2 | 0.00 | 0.00 | 0.00 | 39 | 1010.8 |
| 20260905213805 | 36 | 328 | 3.2 | 4.8 | 0.00 | 0.00 | 0.00 | 40 | 1010.6 |
| 20260905213301 | 36 | 25 | 4.8 | 4.8 | 0.00 | 0.00 | 0.00 | 41 | 1010.8 |
| 20260905212801 | 37 | 5 | 1.6 | 3.2 | 0.00 | 0.00 | 0.00 | 42 | 1010.8 |
| 20260905212255 | 37 | 168 | 0.0 | 1.6 | 0.00 | 0.00 | 0.00 | 44 | 1010.7 |
| 20260905211755 | 37 | 83 | 3.2 | 3.2 | 0.00 | 0.00 | 0.00 | 41 | 1010.6 |
| 20260905211250 | 37 | 163 | 0.0 | 0.0 | 0.00 | 0.00 | 0.00 | 41 | 1010.7 |
| 20260905210747 | 38 | 229 | 3.2 | 3.2 | 0.00 | 0.00 | 0.00 | 39 | 1010.7 |
| 20260905210246 | 38 | 261 | 8.0 | 9.7 | 0.00 | 0.00 | 0.00 | 38 | 1011.0 |
| 20260905205745 | 38 | 233 | 4.8 | 6.4 | 0.00 | 0.00 | 0.00 | 39 | 1010.9 |
| 20260905205240 | 38 | 316 | 1.6 | 1.6 | 0.00 | 0.00 | 0.00 | 41 | 1011.0 |
| 20260905204739 | 38 | 248 | 3.2 | 4.8 | 0.00 | 0.00 | 0.00 | 40 | 1011.0 |
| 20260905204235 | 38 | 200 | 3.2 | 4.8 | 0.00 | 0.00 | 0.00 | 40 | 1011.0 |
| 20260905203735 | 37 | 176 | 0.0 | 0.0 | 0.00 | 0.00 | 0.00 | 41 | 1011.2 |
| 20260905203230 | 37 | 246 | 1.6 | 3.2 | 0.00 | 0.00 | 0.00 | 38 | 1011.3 |
| 20260905202726 | 37 | 259 | 1.6 | 1.6 | 0.00 | 0.00 | 0.00 | 42 | 1011.5 |
| 20260905202222 | 37 | 204 | 1.6 | 3.2 | 0.00 | 0.00 | 0.00 | 41 | 1011.4 |
| 20260905201717 | 37 | 288 | 1.6 | 3.2 | 0.00 | 0.00 | 0.00 | 41 | 1011.5 |
| 20260905201216 | 37 | 225 | 6.4 | 6.4 | 0.00 | 0.00 | 0.00 | 42 | 1011.6 |
| 20260905200712 | 36 | 232 | 1.6 | 3.2 | 0.00 | 0.00 | 0.00 | 42 | 1011.7 |
| 20260905200207 | 37 | 195 | 3.2 | 3.2 | 0.00 | 0.00 | 0.00 | 42 | 1011.6 |
| 20260905195705 | 37 | 277 | 1.6 | 1.6 | 0.00 | 0.00 | 0.00 | 43 | 1011.8 |
| 20260905195200 | 36 | 252 | 3.2 | 3.2 | 0.00 | 0.00 | 0.00 | 44 | 1011.8 |
| 20260905194656 | 36 | 221 | 0.0 | 0.0 | 0.00 | 0.00 | 0.00 | 45 | 1012.0 |
| 20260905194156 | 36 | 238 | 0.0 | 1.6 | 0.00 | 0.00 | 0.00 | 44 | 1012.0 |
| 20260905193655 | 36 | 261 | 0.0 | 0.0 | 0.00 | 0.00 | 0.00 | 45 | 1012.0 |
| 20260905193151 | 37 | 184 | 4.8 | 4.8 | 0.00 | 0.00 | 0.00 | 42 | 1011.7 |
| 20260905192646 | 37 | 190 | 8.0 | 9.7 | 0.00 | 0.00 | 0.00 | 43 | 1011.9 |
| 20260905192143 | 37 | 207 | 9.7 | 12.9 | 0.00 | 0.00 | 0.00 | 41 | 1012.2 |
| 20260905191642 | 37 | 214 | 1.6 | 3.2 | 0.00 | 0.00 | 0.00 | 41 | 1012.2 |
| 20260905191140 | 37 | 260 | 6.4 | 6.4 | 0.00 | 0.00 | 0.00 | 40 | 1012.4 |
| 20260905190638 | 37 | 178 | 1.6 | 1.6 | 0.00 | 0.00 | 0.00 | 42 | 1012.5 |
| 20260905190133 | 36 | 57 | 0.0 | 1.6 | 0.00 | 0.00 | 0.00 | 43 | 1012.4 |
| 20260905185631 | 37 | 252 | 4.8 | 4.8 | 0.00 | 0.00 | 0.00 | 40 | 1012.7 |
| 20260905185126 | 37 | 107 | 1.6 | 3.2 | 0.00 | 0.00 | 0.00 | 44 | 1012.4 |
| 20260905184626 | 37 | 1 | 3.2 | 4.8 | 0.00 | 0.00 | 0.00 | 43 | 1012.7 |
| 20260905184125 | 37 | 279 | 3.2 | 6.4 | 0.00 | 0.00 | 0.00 | 41 | 1012.5 |
| 20260905183624 | 36 | 185 | 3.2 | 3.2 | 0.00 | 0.00 | 0.00 | 42 | 1012.7 |
| 20260905183120 | 36 | 200 | 4.8 | 4.8 | 0.00 | 0.00 | 0.00 | 42 | 1012.8 |
| 20260905182619 | 36 | 216 | 8.0 | 11.3 | 0.00 | 0.00 | 0.00 | 42 | 1012.9 |
| 20260905182120 | 36 | 280 | 4.8 | 4.8 | 0.00 | 0.00 | 0.00 | 43 | 1012.8 |
| 20260905181620 | 36 | 204 | 3.2 | 3.2 | 0.00 | 0.00 | 0.00 | 42 | 1012.8 |
| 20260905181119 | 36 | 205 | 6.4 | 9.7 | 0.00 | 0.00 | 0.00 | 42 | 1012.9 |
| 20260905180614 | 36 | 202 | 1.6 | 1.6 | 0.00 | 0.00 | 0.00 | 41 | 1012.9 |
| 20260905180109 | 36 | 265 | 6.4 | 6.4 | 0.00 | 0.00 | 0.00 | 39 | 1013.0 |
| 20260905175608 | 35 | 216 | 6.4 | 6.4 | 0.00 | 0.00 | 0.00 | 44 | 1013.3 |
| 20260905175104 | 35 | 93 | 3.2 | 3.2 | 0.00 | 0.00 | 0.00 | 49 | 1013.4 |
| 20260905174600 | 35 | 29 | 4.8 | 6.4 | 0.00 | 0.00 | 0.00 | 47 | 1013.5 |
| 20260905174054 | 36 | 99 | 3.2 | 6.4 | 0.00 | 0.00 | 0.00 | 46 | 1013.4 |
| 20260905173551 | 36 | 142 | 1.6 | 1.6 | 0.00 | 0.00 | 0.00 | 45 | 1013.5 |
| 20260905173046 | 36 | 228 | 4.8 | 4.8 | 0.00 | 0.00 | 0.00 | 46 | 1013.6 |
| 20260905172545 | 36 | 93 | 4.8 | 6.4 | 0.00 | 0.00 | 0.00 | 45 | 1013.7 |
| 20260905172040 | 36 | 156 | 3.2 | 3.2 | 0.00 | 0.00 | 0.00 | 45 | 1013.7 |
| 20260905171537 | 36 | 267 | 4.8 | 4.8 | 0.00 | 0.00 | 0.00 | 44 | 1013.9 |
| 20260905171032 | 36 | 179 | 1.6 | 1.6 | 0.00 | 0.00 | 0.00 | 47 | 1013.9 |
| 20260905170529 | 35 | 191 | 3.2 | 3.2 | 0.00 | 0.00 | 0.00 | 47 | 1013.8 |
| 20260905170024 | 36 | 63 | 3.2 | 3.2 | 0.00 | 0.00 | 0.00 | 47 | 1013.9 |
| 20260905165519 | 36 | 299 | 0.0 | 1.6 | 0.00 | 0.00 | 0.00 | 47 | 1013.9 |
| 20260905165014 | 35 | 163 | 1.6 | 1.6 | 0.00 | 0.00 | 0.00 | 48 | 1013.7 |
| 20260905164514 | 35 | 48 | 3.2 | 3.2 | 0.00 | 0.00 | 0.00 | 51 | 1014.0 |
| 20260905164008 | 35 | 329 | 3.2 | 3.2 | 0.00 | 0.00 | 0.00 | 51 | 1014.0 |
| 20260905163505 | 35 | 235 | 3.2 | 3.2 | 0.00 | 0.00 | 0.00 | 51 | 1014.2 |
| 20260905163000 | 35 | 166 | 0.0 | 1.6 | 0.00 | 0.00 | 0.00 | 49 | 1014.1 |
| 20260905162455 | 35 | 202 | 3.2 | 4.8 | 0.00 | 0.00 | 0.00 | 49 | 1014.0 |
| 20260905161950 | 35 | 211 | 3.2 | 4.8 | 0.00 | 0.00 | 0.00 | 52 | 1014.2 |
| 20260905161450 | 35 | 27 | 4.8 | 6.4 | 0.00 | 0.00 | 0.00 | 50 | 1014.1 |
| 20260905160948 | 35 | 21 | 3.2 | 3.2 | 0.00 | 0.00 | 0.00 | 51 | 1014.3 |
| 20260905160442 | 35 | 285 | 6.4 | 6.4 | 0.00 | 0.00 | 0.00 | 50 | 1014.4 |
| 20260905155941 | 35 | 221 | 3.2 | 4.8 | 0.00 | 0.00 | 0.00 | 50 | 1014.3 |
| 20260905155436 | 35 | 242 | 1.6 | 1.6 | 0.00 | 0.00 | 0.00 | 53 | 1014.1 |
| 20260905154935 | 34 | 122 | 1.6 | 1.6 | 0.00 | 0.00 | 0.00 | 54 | 1014.4 |
| 20260905154430 | 35 | 145 | 0.0 | 1.6 | 0.00 | 0.00 | 0.00 | 53 | 1014.4 |
| 20260905153926 | 35 | 171 | 0.0 | 0.0 | 0.00 | 0.00 | 0.00 | 53 | 1014.4 |
| 20260905153422 | 35 | 120 | 3.2 | 4.8 | 0.00 | 0.00 | 0.00 | 53 | 1014.4 |
| 20260905152922 | 35 | 257 | 1.6 | 1.6 | 0.00 | 0.00 | 0.00 | 52 | 1014.5 |
| 20260905152421 | 35 | 287 | 1.6 | 1.6 | 0.00 | 0.00 | 0.00 | 55 | 1014.5 |
| 20260905151916 | 34 | 14 | 3.2 | 3.2 | 0.00 | 0.00 | 0.00 | 54 | 1014.6 |
| 20260905151412 | 34 | 348 | 6.4 | 6.4 | 0.00 | 0.00 | 0.00 | 53 | 1014.6 |
| 20260905150907 | 34 | 153 | 0.0 | 0.0 | 0.00 | 0.00 | 0.00 | 54 | 1014.6 |
| 20260905150406 | 34 | 144 | 1.6 | 3.2 | 0.00 | 0.00 | 0.00 | 55 | 1014.7 |
| 20260905145904 | 33 | 181 | 0.0 | 0.0 | 0.00 | 0.00 | 0.00 | 57 | 1014.7 |
| 20260905145404 | 33 | 48 | 0.0 | 1.6 | 0.00 | 0.00 | 0.00 | 56 | 1014.5 |
| 20260905144903 | 33 | 116 | 1.6 | 1.6 | 0.00 | 0.00 | 0.00 | 58 | 1014.7 |
| 20260905144359 | 33 | 101 | 1.6 | 1.6 | 0.00 | 0.00 | 0.00 | 60 | 1014.6 |
| 20260905143857 | 33 | 21 | 1.6 | 1.6 | 0.00 | 0.00 | 0.00 | 59 | 1014.8 |
| 20260905143352 | 33 | 175 | 0.0 | 1.6 | 0.00 | 0.00 | 0.00 | 59 | 1014.5 |
| 20260905142851 | 33 | 187 | 1.6 | 1.6 | 0.00 | 0.00 | 0.00 | 60 | 1014.6 |
| 20260905142350 | 33 | 24 | 1.6 | 3.2 | 0.00 | 0.00 | 0.00 | 60 | 1014.6 |
| 20260905141846 | 32 | 123 | 0.0 | 1.6 | 0.00 | 0.00 | 0.00 | 61 | 1014.7 |
| 20260905141341 | 32 | 264 | 3.2 | 3.2 | 0.00 | 0.00 | 0.00 | 61 | 1014.7 |
| 20260905140837 | 32 | 209 | 0.0 | 0.0 | 0.00 | 0.00 | 0.00 | 62 | 1014.9 |
| 20260905140337 | 32 | 285 | 1.6 | 1.6 | 0.00 | 0.00 | 0.00 | 62 | 1014.8 |
| 20260905135836 | 32 | 184 | 1.6 | 3.2 | 0.00 | 0.00 | 0.00 | 63 | 1014.8 |
| 20260905135332 | 32 | 49 | 0.0 | 0.0 | 0.00 | 0.00 | 0.00 | 65 | 1014.8 |
| 20260905134828 | 32 | 20 | 0.0 | 0.0 | 0.00 | 0.00 | 0.00 | 64 | 1014.7 |
| 20260905134326 | 31 | 165 | 0.0 | 1.6 | 0.00 | 0.00 | 0.00 | 68 | 1014.7 |
| 20260905133827 | 31 | 30 | 3.2 | 4.8 | 0.00 | 0.00 | 0.00 | 66 | 1014.9 |
| 20260905133322 | 31 | 145 | 0.0 | 0.0 | 0.00 | 0.00 | 0.00 | 68 | 1014.8 |
| 20260905132821 | 32 | 347 | 1.6 | 3.2 | 0.00 | 0.00 | 0.00 | 64 | 1014.7 |
| 20260905132317 | 31 | 359 | 0.0 | 0.0 | 0.00 | 0.00 | 0.00 | 67 | 1014.9 |
| 20260905131816 | 31 | 359 | 0.0 | 0.0 | 0.00 | 0.00 | 0.00 | 68 | 1014.8 |
| 20260905131312 | 31 | 250 | 0.0 | 0.0 | 0.00 | 0.00 | 0.00 | 67 | 1014.8 |
| 20260905130807 | 31 | 287 | 0.0 | 0.0 | 0.00 | 0.00 | 0.00 | 69 | 1014.9 |
| 20260905130306 | 31 | 288 | 0.0 | 0.0 | 0.00 | 0.00 | 0.00 | 69 | 1014.6 |
| 20260905125801 | 30 | 289 | 0.0 | 0.0 | 0.00 | 0.00 | 0.00 | 73 | 1014.5 |
| 20260905125256 | 29 | 289 | 0.0 | 0.0 | 0.00 | 0.00 | 0.00 | 75 | 1014.9 |
| 20260905124753 | 29 | 289 | 0.0 | 0.0 | 0.00 | 0.00 | 0.00 | 75 | 1014.7 |
| 20260905124248 | 28 | 289 | 0.0 | 0.0 | 0.00 | 0.00 | 0.00 | 76 | 1014.8 |
| 20260905123743 | 28 | 289 | 0.0 | 0.0 | 0.00 | 0.00 | 0.00 | 78 | 1014.8 |
| 20260905123240 | 27 | 289 | 0.0 | 0.0 | 0.00 | 0.00 | 0.00 | 79 | 1014.7 |
| 20260905122735 | 27 | 289 | 0.0 | 0.0 | 0.00 | 0.00 | 0.00 | 80 | 1014.7 |
| 20260905122234 | 26 | 289 | 0.0 | 0.0 | 0.00 | 0.00 | 0.00 | 81 | 1014.7 |
| 20260905121730 | 26 | 289 | 0.0 | 0.0 | 0.00 | 0.00 | 0.00 | 82 | 1014.8 |